Change the Weather History Date:

Saturday, August 17, 2013

  Actual Average Record
Temperature  
Mean Temperature 63 °F -  
Max Temperature 78 °F 74 °F 87 °F (2003)
Min Temperature 48 °F 52 °F 39 °F (2012)
Degree Days  
Heating Degree Days 2    
Growing Degree Days 13 (Base 50)    
Moisture  
Dew Point 57 °F    
Average Humidity 75    
Maximum Humidity 100    
Minimum Humidity 51    
Precipitation  
Precipitation 0.00 in - - ()
Sea Level Pressure  
Sea Level Pressure 30.14 in    
Wind  
Wind Speed 4 mph (South)    
Max Wind Speed 14 mph    
Max Gust Speed 22 mph    
Visibility 10 miles    
Events      
Averages and records for this station are not official NWS values.
T = Trace of Precipitation, MM = Missing Value Source: NWS Daily Summary

Daily Weather History Graph

Daily Weather History Graph

Search for Another Location

Airport or City:

Trip Planner

Search our weather history database for the weather conditions in past years. The results will help you decide how hot, cold, wet, or windy it might be!

Date:

Astronomy

Aug. 17, 2013 Rise Set
Actual Time 6:18 AM CDT 8:23 PM CDT
Civil Twilight 5:45 AM CDT 8:56 PM CDT
Nautical Twilight 5:04 AM CDT 9:37 PM CDT
Astronomical Twilight 4:19 AM CDT 10:22 PM CDT
Moon 5:46 PM CDT (8/17) 2:15 AM CDT (8/17)
Length of Visible Light 15h 11m
Length of Day
14h 05m
Waxing Gibbous, 84% of the Moon is Illuminated
Aug 17
Waxing Gibbous
Aug 20
Full
Aug 28
Last Quarter
Sep 5
New
Sep 12
First Quarter

Hourly Weather History & Observations

Time (CDT) Temp. Dew Point Humidity Pressure Visibility Wind Dir Wind Speed Gust Speed Precip Events Conditions
12:13 AM 55.4 °F 51.8 °F 88% 30.18 in 10.0 mi Calm Calm - N/A   Clear
12:32 AM 55.4 °F 51.8 °F 88% 30.18 in 10.0 mi Calm Calm - N/A   Clear
12:53 AM 55.4 °F 51.8 °F 88% 30.18 in 10.0 mi Calm Calm - N/A   Clear
1:12 AM 53.6 °F 51.8 °F 94% 30.18 in 10.0 mi Calm Calm - N/A   Clear
1:32 AM 55.4 °F 51.8 °F 88% 30.18 in 10.0 mi Calm Calm - N/A   Clear
1:53 AM 53.6 °F 50.0 °F 88% 30.18 in 10.0 mi Calm Calm - N/A   Clear
2:13 AM 51.8 °F 48.2 °F 88% 30.18 in 10.0 mi Calm Calm - N/A   Clear
2:33 AM 51.8 °F 48.2 °F 88% 30.17 in 10.0 mi Calm Calm - N/A   Clear
2:52 AM 51.8 °F 50.0 °F 94% 30.17 in 10.0 mi Calm Calm - N/A   Clear
3:13 AM 51.8 °F 50.0 °F 94% 30.17 in 10.0 mi Calm Calm - N/A   Clear
3:33 AM 51.8 °F 51.8 °F 100% 30.17 in 10.0 mi Calm Calm - N/A   Clear
3:51 AM 51.8 °F 50.0 °F 94% 30.17 in 10.0 mi Calm Calm - N/A   Clear
4:13 AM 51.8 °F 51.8 °F 100% 30.18 in 10.0 mi Calm Calm - N/A   Clear
4:32 AM 51.8 °F 51.8 °F 100% 30.17 in 7.0 mi Calm Calm - N/A   Clear
4:53 AM 51.8 °F 51.8 °F 100% 30.17 in 7.0 mi Calm Calm - N/A   Clear
5:13 AM 48.2 °F 48.2 °F 100% 30.17 in 7.0 mi Calm Calm - N/A   Clear
5:31 AM 51.8 °F 51.8 °F 100% 30.17 in 7.0 mi Calm Calm - N/A   Clear
5:53 AM 51.8 °F 51.8 °F 100% 30.17 in 7.0 mi Calm Calm - N/A   Clear
6:13 AM 51.8 °F 51.8 °F 100% 30.17 in 7.0 mi Calm Calm - N/A   Clear
6:33 AM 51.8 °F 51.8 °F 100% 30.18 in 5.0 mi Calm Calm - N/A   Clear
6:53 AM 51.8 °F 51.8 °F 100% 30.18 in 7.0 mi Calm Calm - N/A   Clear
7:13 AM 53.6 °F 53.6 °F 100% 30.18 in 5.0 mi SSE 4.6 mph - N/A   Clear
7:33 AM 55.4 °F 55.4 °F 100% 30.18 in 7.0 mi SSE 3.5 mph - N/A   Clear
7:52 AM 57.2 °F 57.2 °F 100% 30.18 in 10.0 mi South 5.8 mph - N/A   Clear
8:13 AM 60.8 °F 57.2 °F 88% 30.18 in 10.0 mi South 5.8 mph - N/A   Clear
8:32 AM 60.8 °F 57.2 °F 88% 30.18 in 10.0 mi South 5.8 mph - N/A   Clear
8:52 AM 62.6 °F 57.2 °F 82% 30.17 in 10.0 mi South 8.1 mph - N/A   Clear
9:12 AM 64.4 °F 57.2 °F 77% 30.17 in 10.0 mi South 8.1 mph - N/A   Clear
9:31 AM 66.2 °F 57.2 °F 73% 30.17 in 10.0 mi South 9.2 mph - N/A   Clear
9:53 AM 69.8 °F 59.0 °F 68% 30.17 in 10.0 mi SSW 12.7 mph 18.4 mph N/A   Clear
10:13 AM 69.8 °F 59.0 °F 68% 30.17 in 10.0 mi South 8.1 mph 18.4 mph N/A   Clear
10:32 AM 69.8 °F 59.0 °F 68% 30.17 in 10.0 mi SSW 10.4 mph 19.6 mph N/A   Scattered Clouds
10:52 AM 71.6 °F 60.8 °F 69% 30.16 in 10.0 mi SW 12.7 mph 19.6 mph N/A   Clear
11:13 AM 71.6 °F 60.8 °F 69% 30.16 in 10.0 mi SW 11.5 mph 18.4 mph N/A   Scattered Clouds
11:33 AM 71.6 °F 59.0 °F 64% 30.17 in 10.0 mi SSW 11.5 mph 18.4 mph N/A   Scattered Clouds
11:53 AM 71.6 °F 60.8 °F 69% 30.17 in 10.0 mi SSW 9.2 mph - N/A   Mostly Cloudy
12:12 PM 73.4 °F 60.8 °F 65% 30.17 in 10.0 mi SSW 11.5 mph - N/A   Mostly Cloudy
12:33 PM 73.4 °F 60.8 °F 65% 30.16 in 10.0 mi SW 8.1 mph - N/A   Mostly Cloudy
12:53 PM 75.2 °F 60.8 °F 61% 30.15 in 10.0 mi South 10.4 mph - N/A   Mostly Cloudy
1:13 PM 77.0 °F 60.8 °F 57% 30.14 in 10.0 mi SSW 12.7 mph 17.3 mph N/A   Scattered Clouds
1:33 PM 75.2 °F 60.8 °F 61% 30.14 in 10.0 mi South 11.5 mph 18.4 mph N/A   Scattered Clouds
1:52 PM 75.2 °F 60.8 °F 61% 30.13 in 10.0 mi South 10.4 mph 21.9 mph N/A   Scattered Clouds
2:13 PM 77.0 °F 60.8 °F 57% 30.13 in 10.0 mi SSW 12.7 mph 19.6 mph N/A   Clear
2:32 PM 77.0 °F 60.8 °F 57% 30.12 in 10.0 mi SSW 10.4 mph 19.6 mph N/A   Scattered Clouds
2:52 PM 78.8 °F 60.8 °F 54% 30.12 in 10.0 mi South 13.8 mph 19.6 mph N/A   Mostly Cloudy
3:12 PM 78.8 °F 60.8 °F 54% 30.11 in 10.0 mi SW 10.4 mph 17.3 mph N/A   Scattered Clouds
3:33 PM 78.8 °F 60.8 °F 54% 30.11 in 10.0 mi South 13.8 mph 19.6 mph N/A   Scattered Clouds
3:52 PM 78.8 °F 60.8 °F 54% 30.10 in 10.0 mi SSW 11.5 mph 18.4 mph N/A   Scattered Clouds
4:13 PM 78.8 °F 60.8 °F 54% 30.10 in 10.0 mi South 10.4 mph 17.3 mph N/A   Scattered Clouds
4:33 PM 78.8 °F 59.0 °F 51% 30.10 in 10.0 mi South 11.5 mph 17.3 mph N/A   Clear
4:53 PM 78.8 °F 60.8 °F 54% 30.10 in 10.0 mi South 9.2 mph 18.4 mph N/A   Scattered Clouds
5:13 PM 78.8 °F 60.8 °F 54% 30.10 in 10.0 mi South 9.2 mph 18.4 mph N/A   Scattered Clouds
5:33 PM 78.8 °F 60.8 °F 54% 30.10 in 10.0 mi South 11.5 mph 17.3 mph N/A   Scattered Clouds
5:52 PM 78.8 °F 60.8 °F 54% 30.10 in 10.0 mi South 10.4 mph 16.1 mph N/A   Clear
6:13 PM 77.0 °F 60.8 °F 57% 30.10 in 10.0 mi South 10.4 mph 17.3 mph N/A   Clear
6:33 PM 75.2 °F 60.8 °F 61% 30.09 in 10.0 mi South 9.2 mph - N/A   Clear
6:52 PM 75.2 °F 60.8 °F 61% 30.10 in 10.0 mi South 6.9 mph - N/A   Clear
7:13 PM 75.2 °F 60.8 °F 61% 30.09 in 10.0 mi South 6.9 mph - N/A   Clear
7:33 PM 75.2 °F 60.8 °F 61% 30.09 in 10.0 mi South 5.8 mph - N/A   Clear
7:52 PM 73.4 °F 60.8 °F 65% 30.09 in 10.0 mi South 6.9 mph - N/A   Clear
8:13 PM 71.6 °F 59.0 °F 64% 30.08 in 10.0 mi South 6.9 mph - N/A   Clear
8:33 PM 71.6 °F 59.0 °F 64% 30.08 in 10.0 mi South 6.9 mph - N/A   Clear
8:52 PM 69.8 °F 59.0 °F 68% 30.08 in 10.0 mi South 9.2 mph - N/A   Clear
9:12 PM 69.8 °F 59.0 °F 68% 30.08 in 10.0 mi South 9.2 mph - N/A   Clear
9:33 PM 69.8 °F 59.0 °F 68% 30.08 in 10.0 mi South 5.8 mph - N/A   Clear
9:53 PM 68.0 °F 59.0 °F 73% 30.08 in 10.0 mi South 6.9 mph - N/A   Clear
10:13 PM 68.0 °F 59.0 °F 73% 30.09 in 10.0 mi South 5.8 mph - N/A   Clear
10:32 PM 66.2 °F 59.0 °F 78% 30.09 in 10.0 mi South 5.8 mph - N/A   Clear
10:53 PM 66.2 °F 57.2 °F 73% 30.09 in 10.0 mi South 4.6 mph - N/A   Clear
11:12 PM 66.2 °F 57.2 °F 73% 30.09 in 10.0 mi South 5.8 mph - N/A   Clear
11:33 PM 64.4 °F 57.2 °F 77% 30.09 in 10.0 mi South 3.5 mph - N/A   Clear
11:53 PM 64.4 °F 57.2 °F 77% 30.10 in 10.0 mi South 4.6 mph - N/A   Clear